Flag for Germany Weather past 2 weeks in Kempten, Bavaria, Germany

Now
29 °F

Overcast.


Feels Like: 29 °F
Forecast: 30 / 37 °F
Wind: 2 mph from Southeast

Location: Kempten

Current Time: Mar 3, 2015 at 6:19:40 AM

Latest Report: Mar 3, 2015 at 6:00 AM


Visibility: 22 mi

Pressure: 30.29 "Hg

Humidity: 86%

Dew point: 26 °F

Location of KemptenLocation

Historic Weather in Kempten — Graph

°F

Kempten temperature yesterday

Maximum temperature yesterday: 45 °F (at 9:00 AM)
Minimum temperature yesterday: 33 °F (at 1:00 PM)
Average temperature yesterday: 40 °F

Past Weeks' High & Low Weather Summary

 TemperatureHumidityPressure
High52 °F (Feb 20, 1:00 PM)99% (Feb 28, 7:00 AM)30.77 "Hg (Feb 28, 7:00 AM)
Low11 °F (Feb 16, 6:00 AM)26% (Feb 20, 1:00 PM)29.50 "Hg (Feb 21, 1:00 PM)
Average32 °F81%30.09 "Hg
* Reported Feb 16 5:00 AM — Mar 3 5:00 AM, Kempten, Weather by CustomWeather, © 2015

Note: Actual official high and low records may vary slightly from our data, if they occured in-between our weather recording intervals... More about our weather records

Advertising

Kempten weather history for previous 24 hours

 ConditionsComfort  
Time TempWeatherWind HumidityBarometerVisibility
5:00 AM
Tue, Mar 3
32 °FOvercast.2 mph79%30.28 "Hg25 mi
3:00 AM33 °FPassing clouds.5 mph81%30.26 "Hg28 mi
2:00 AM33 °FOvercast.3 mph79%30.27 "Hg31 mi
1:00 AM33 °FPassing clouds.5 mph71%30.26 "Hg31 mi
12:00 AM34 °FPassing clouds.6 mph74%30.24 "Hg37 mi
11:00 PM
Mon, Mar 2
35 °FPassing clouds.7 mph77%30.19 "Hg43 mi
9:00 PM36 °FLight snow. Overcast.6 mph81%30.07 "Hg25 mi
8:00 PM38 °FPassing clouds.7 mph82%30.02 "Hg31 mi
7:00 PM38 °FPassing clouds.6 mph83%30.01 "Hg40 mi
6:00 PM36 °FRain. Overcast.5 mph89%29.98 "Hg2 mi
5:00 PM38 °FRain. Overcast.7 mph88%29.94 "Hg2 mi
4:00 PM38 °FOvercast.5 mph84%29.90 "Hg15 mi
3:00 PM37 °FLight rain. Overcast.5 mph88%29.91 "Hg10 mi
2:00 PM34 °FDrizzle. Low clouds.5 mph95%29.92 "Hg6 mi
1:00 PM33 °FSnow. Low clouds.2 mph97%29.92 "Hg2 mi
12:00 PM36 °FRain. Light fog.5 mph88%29.88 "Hg7 mi
11:00 AM38 °FRain. Overcast.10 mph87%29.83 "Hg5 mi
10:00 AM43 °FRain. Overcast.7 mph85%29.79 "Hg15 mi
9:00 AM45 °FOvercast.8 mph78%29.72 "Hg25 mi
8:00 AM44 °FOvercast.6 mph85%29.72 "Hg22 mi
7:00 AM45 °FOvercast.6 mph84%29.70 "Hg43 mi
6:00 AM45 °FLight freezing rain. Overcast.6 mph85%29.70 "Hg4 mi
Weather by CustomWeather, © 2015

See weather overviewHow to use our weather pages